This is the latest recevied weather packets stored in our database for station/object K5GHS-1. If no packets are shown the sender has not sent any weather packets the latest 1 day(s).
| Time | Temp. | Humidity | Pressure | Rain* | Wind** | Luminosity | Snow |
|---|---|---|---|---|---|---|---|
| 1778026851 | 24.44° C | 68% | 1004.3 hPa | 0 mm | 0 m/s | 10 W/m² | - |
| 1778026547 | 24.44° C | 69% | 1003.8 hPa | 0 mm | 0 m/s | 12 W/m² | - |
| 1778026245 | 25° C | 68% | 1003.9 hPa | 0 mm | 0 m/s | 15 W/m² | - |
| 1778025942 | 25.56° C | 67% | 1003.7 hPa | 0 mm | 0.89 m/s, 61° | 24 W/m² | - |
| 1778025639 | 25.56° C | 66% | 1003.3 hPa | 0 mm | 0 m/s | 42 W/m² | - |
| 1778025337 | 26.11° C | 66% | 1003.3 hPa | 0 mm | 0 m/s | 40 W/m² | - |
| 1778025034 | 26.11° C | 65% | 1003.3 hPa | 0 mm | 0.45 m/s, 339° | 32 W/m² | - |
| 1778024731 | 26.67° C | 64% | 1003.4 hPa | 0 mm | 0.45 m/s, 58° | 32 W/m² | - |
| 1778024428 | 26.67° C | 64% | 1003.3 hPa | 0 mm | 0.89 m/s, 68° | 32 W/m² | - |
| 1778024125 | 27.22° C | 63% | 1003 hPa | 0 mm | 0 m/s | 48 W/m² | - |
| 1778023823 | 27.78° C | 62% | 1003.2 hPa | 0 mm | 0.45 m/s, 74° | 45 W/m² | - |
| 1778023520 | 27.78° C | 61% | 1003.1 hPa | 0 mm | 0.45 m/s, 73° | 36 W/m² | - |
| 1778023218 | 28.33° C | 60% | 1002.8 hPa | 0 mm | 0 m/s | 43 W/m² | - |
| 1778022914 | 28.89° C | 58% | 1002.8 hPa | 0 mm | 0 m/s | 35 W/m² | - |
| 1778022613 | 29.44° C | 55% | 1002.6 hPa | 0 mm | 0.45 m/s, 62° | 47 W/m² | - |
| 1778022310 | 29.44° C | 53% | 1002.5 hPa | 0 mm | 0 m/s | 65 W/m² | - |
| 1778022006 | 29.44° C | 51% | 1002.4 hPa | 0 mm | 0 m/s | 75 W/m² | - |
| 1778021703 | 30° C | 51% | 1002.3 hPa | 0 mm | 0 m/s | 68 W/m² | - |
| 1778021399 | 30.56° C | 49% | 1002.4 hPa | 0 mm | 0 m/s | 71 W/m² | - |
| 1778021096 | 31.11° C | 48% | 1002.5 hPa | 0 mm | 0 m/s | 77 W/m² | - |
| 1778020794 | 31.67° C | 47% | 1002.3 hPa | 0 mm | 0.45 m/s, 41° | 98 W/m² | - |
| 1778020490 | 32.78° C | 46% | 1002.4 hPa | 0 mm | 0 m/s | 111 W/m² | - |
| 1778020187 | 33.33° C | 48% | 1002 hPa | 0 mm | 0 m/s | 409 W/m² | - |
| 1778019883 | 32.78° C | 52% | 1001.6 hPa | 0 mm | 0.45 m/s, 101° | 419 W/m² | - |
| 1778019579 | 32.78° C | 51% | 1001.7 hPa | 0 mm | 0.45 m/s, 69° | 267 W/m² | - |
* Rain latest hour (hover to see other rain measurements)
** Current wind speed in m/s (hover to see current wind gust speed)